EW1671 Weather Reports


time (UTC)temp
F
wind
direction
speed
knots
gust
knots
rain 1hr
in
rain 24hr
in
rain mn
in
humidity
%
barometer
mb
20260506033600 62 201 1.7 5.2 0.00 0.00 0.00 62 1006.5
20260506033100 61 210 1.7 4.3 0.00 0.00 0.00 63 1006.5
20260506032559 61 199 0.9 4.3 0.00 0.00 0.00 63 1006.5
20260506032100 61 205 0.9 4.3 0.00 0.00 0.00 63 1006.4
20260506031603 61 202 0.9 3.5 0.00 0.00 0.00 63 1006.4
20260506031102 61 207 0.9 3.5 0.00 0.00 0.00 63 1006.3
20260506030558 62 203 0.9 3.5 0.00 0.00 0.00 63 1006.3
20260506030116 62 215 0.9 4.3 0.00 0.00 0.00 63 1006.3
20260506025601 62 216 1.7 4.3 0.00 0.00 0.00 63 1006.4
20260506025058 62 205 0.9 5.2 0.00 0.00 0.00 62 1006.3
20260506024600 62 205 0.9 5.2 0.00 0.00 0.00 62 1006.5
20260506024058 63 202 0.9 3.5 0.00 0.00 0.00 62 1006.5
20260506023557 63 185 0.9 5.2 0.00 0.00 0.00 61 1006.5
20260506023058 64 192 0.9 5.2 0.00 0.00 0.00 59 1006.5
20260506022557 64 193 1.7 5.2 0.00 0.00 0.00 58 1006.5
20260506022057 65 210 1.7 7.8 0.00 0.00 0.00 57 1006.5
20260506021601 66 195 0.9 7.8 0.00 0.00 0.00 55 1006.4
20260506021057 66 197 2.6 8.7 0.00 0.00 0.00 54 1006.5
20260506020557 67 194 2.6 8.7 0.00 0.00 0.00 54 1006.5
20260506020056 67 207 2.6 8.7 0.00 0.00 0.00 53 1006.5
20260506015556 67 196 3.5 7.8 0.00 0.00 0.00 54 1006.5
20260506015056 67 205 3.5 7.8 0.00 0.00 0.00 53 1006.5
20260506014603 67 196 2.6 8.7 0.00 0.00 0.00 53 1006.4
20260506014056 67 201 2.6 8.7 0.00 0.00 0.00 54 1006.4
20260506013555 67 226 2.6 8.7 0.00 0.00 0.00 54 1006.4
20260506013056 67 216 2.6 7.0 0.00 0.00 0.00 55 1006.3
20260506012555 67 212 2.6 7.0 0.00 0.00 0.00 54 1006.1
20260506012059 67 197 3.5 7.0 0.00 0.00 0.00 53 1006.1
20260506011555 68 194 1.7 8.7 0.00 0.00 0.00 55 1006.1
20260506011055 68 219 3.5 8.7 0.00 0.00 0.00 53 1006.0
20260506010556 68 196 3.5 7.8 0.00 0.00 0.00 54 1005.9
20260506010104 68 213 4.3 7.8 0.00 0.00 0.00 54 1005.9
20260506005555 68 204 2.6 7.8 0.00 0.00 0.00 53 1005.8
20260506005055 69 214 3.5 7.0 0.00 0.00 0.00 55 1005.8
20260506004555 69 224 1.7 7.0 0.00 0.00 0.00 54 1005.9
20260506004054 69 253 2.6 7.0 0.00 0.00 0.00 53 1005.9
20260506003554 69 211 2.6 5.2 0.00 0.00 0.00 53 1005.8
20260506003054 69 189 1.7 8.7 0.00 0.00 0.00 53 1005.8
20260506002555 69 220 3.5 9.6 0.00 0.00 0.00 53 1005.6
20260506002053 70 224 2.6 9.6 0.00 0.00 0.00 53 1005.6
20260506001558 71 206 1.7 7.8 0.00 0.00 0.00 52 1005.5
20260506001053 71 219 2.6 10.4 0.00 0.00 0.00 50 1005.4
20260506000552 72 232 2.6 10.4 0.00 0.00 0.00 49 1005.4
20260506000058 72 190 4.3 7.8 0.00 0.00 0.00 49 1005.2
20260505235556 73 224 2.6 7.0 0.00 0.00 0.00 48 1005.2
20260505235053 73 205 2.6 10.4 0.00 0.00 0.00 48 1005.1
20260505234553 73 197 4.3 11.3 0.00 0.00 0.00 48 1005.1
20260505234053 73 207 3.5 11.3 0.00 0.00 0.00 48 1005.0
20260505233551 74 166 6.1 13.0 0.00 0.00 0.00 48 1005.0
20260505233103 74 224 4.3 17.4 0.00 0.00 0.00 48 1005.0
20260505232551 74 220 6.1 17.4 0.00 0.00 0.00 47 1005.0
20260505232052 74 204 4.3 15.6 0.00 0.00 0.00 46 1005.0
20260505231552 74 228 5.2 15.6 0.00 0.00 0.00 47 1005.0
20260505231055 75 125 2.6 15.6 0.00 0.00 0.00 47 1004.9
20260505230550 75 194 3.5 10.4 0.00 0.00 0.00 47 1004.9
20260505230052 75 211 4.3 14.8 0.00 0.00 0.00 47 1004.9
20260505225550 75 176 6.1 14.8 0.00 0.00 0.00 47 1004.9
20260505225051 75 225 4.3 13.9 0.00 0.00 0.00 49 1005.0
20260505224550 75 205 3.5 13.9 0.00 0.00 0.00 48 1004.9
20260505224049 75 202 4.3 9.6 0.00 0.00 0.00 47 1004.9
20260505223550 76 216 3.5 9.6 0.00 0.00 0.00 47 1004.9
20260505223051 76 209 3.5 12.2 0.00 0.00 0.00 45 1004.9
20260505222549 76 211 4.3 12.2 0.00 0.00 0.00 44 1004.9
20260505222050 76 237 4.3 16.5 0.00 0.00 0.00 44 1004.9
20260505221551 77 211 6.1 16.5 0.00 0.00 0.00 43 1004.8
20260505221052 77 179 5.2 13.9 0.00 0.00 0.00 40 1005.0
20260505220548 77 251 3.5 19.1 0.00 0.00 0.00 40 1004.8
20260505220048 77 217 3.5 19.1 0.00 0.00 0.00 40 1004.9
20260505215548 77 213 4.3 13.9 0.00 0.00 0.00 40 1004.9
20260505215048 77 209 6.1 18.2 0.00 0.00 0.00 41 1004.9
20260505214548 78 189 5.2 18.2 0.00 0.00 0.00 40 1004.9
20260505214050 78 236 6.1 21.7 0.00 0.00 0.00 40 1004.9
20260505213546 78 217 7.8 21.7 0.00 0.00 0.00 39 1004.9
20260505213151 79 218 7.0 21.7 0.00 0.00 0.00 40 1004.8
20260505212546 80 265 7.8 21.7 0.00 0.00 0.00 40 1004.8
20260505212046 80 218 6.1 20.9 0.00 0.00 0.00 41 1004.7
20260505211546 79 230 8.7 19.1 0.00 0.00 0.00 43 1004.7
20260505211045 79 223 5.2 14.8 0.00 0.00 0.00 40 1004.8
20260505210544 80 233 7.0 16.5 0.00 0.00 0.00 39 1004.7
20260505210044 80 194 4.3 17.4 0.00 0.00 0.00 42 1004.8
20260505205544 80 208 3.5 17.4 0.00 0.00 0.00 44 1004.7
20260505205043 80 180 7.0 15.6 0.00 0.00 0.00 41 1004.7
20260505204542 80 224 7.8 17.4 0.00 0.00 0.00 41 1004.8
20260505204042 80 201 7.0 17.4 0.00 0.00 0.00 44 1004.8
20260505203541 80 210 5.2 15.6 0.00 0.00 0.00 44 1004.8
20260505203048 80 339 2.6 16.5 0.00 0.00 0.00 44 1004.9
20260505202541 79 208 5.2 16.5 0.00 0.00 0.00 44 1004.9
20260505202041 80 226 5.2 14.8 0.00 0.00 0.00 43 1004.9
20260505201540 80 237 5.2 19.1 0.00 0.00 0.00 44 1004.9
20260505201039 80 210 5.2 19.1 0.00 0.00 0.00 41 1005.0
20260505200539 80 211 6.1 16.5 0.00 0.00 0.00 43 1005.0
20260505200039 80 203 5.2 15.6 0.00 0.00 0.00 46 1005.0
20260505195539 80 249 7.0 15.6 0.00 0.00 0.00 44 1005.1
20260505195037 80 226 5.2 18.2 0.00 0.00 0.00 45 1005.0
20260505194536 80 242 7.0 18.2 0.00 0.00 0.00 47 1005.1
20260505194038 80 178 7.8 14.8 0.00 0.00 0.00 47 1005.1
20260505193535 79 198 3.5 16.5 0.00 0.00 0.00 48 1005.1
20260505193047 79 213 6.1 17.4 0.00 0.00 0.00 46 1005.3
20260505192533 79 235 6.1 17.4 0.00 0.00 0.00 47 1005.5
20260505192032 79 220 3.5 20.0 0.00 0.00 0.00 48 1005.5
20260505191539 79 229 9.6 20.0 0.00 0.00 0.00 46 1005.5
20260505191032 79 190 6.1 20.9 0.00 0.00 0.00 47 1005.7
20260505190534 79 197 5.2 20.9 0.00 0.00 0.00 46 1005.8
20260505190038 79 233 4.3 19.1 0.00 0.00 0.00 46 1005.7
20260505185531 80 216 8.7 16.5 0.00 0.00 0.00 48 1005.8
20260505185030 79 221 2.6 15.6 0.00 0.00 0.00 49 1005.7
20260505184629 79 203 3.5 15.6 0.00 0.00 0.00 48 1005.8
20260505184029 79 256 2.6 18.2 0.00 0.00 0.00 50 1005.9
20260505183527 79 199 8.7 17.4 0.00 0.00 0.00 49 1006.0
20260505183028 79 295 6.1 13.9 0.00 0.00 0.00 49 1005.9
20260505182526 79 232 4.3 13.9 0.00 0.00 0.00 49 1006.1
20260505182029 79 239 4.3 15.6 0.00 0.00 0.00 50 1006.2
20260505181526 79 161 7.0 15.6 0.00 0.00 0.00 47 1006.1
20260505181026 79 310 3.5 10.4 0.00 0.00 0.00 52 1006.3
20260505180525 78 235 4.3 14.8 0.00 0.00 0.00 50 1006.2
20260505180034 78 208 7.0 14.8 0.00 0.00 0.00 48 1006.4
20260505175528 78 221 1.7 10.4 0.00 0.00 0.00 52 1006.4
20260505175024 79 233 3.5 11.3 0.00 0.00 0.00 48 1006.4
20260505174524 79 235 2.6 8.7 0.00 0.00 0.00 49 1006.4
20260505174023 79 217 2.6 8.7 0.00 0.00 0.00 48 1006.4
20260505173527 79 224 1.7 8.7 0.00 0.00 0.00 46 1006.5
20260505173023 79 230 3.5 9.6 0.00 0.00 0.00 48 1006.5
20260505172524 79 302 4.3 11.3 0.00 0.00 0.00 50 1006.5
20260505172021 79 228 1.7 14.8 0.00 0.00 0.00 54 1006.4
20260505171520 79 189 4.3 13.9 0.00 0.00 0.00 52 1006.5
20260505171020 79 222 4.3 13.0 0.00 0.00 0.00 52 1006.7
20260505170517 78 345 4.3 8.7 0.00 0.00 0.00 51 1006.9
20260505170019 78 240 1.7 11.3 0.00 0.00 0.00 51 1006.9
20260505165517 78 221 3.5 11.3 0.00 0.00 0.00 50 1007.0
20260505165016 79 243 4.3 13.0 0.00 0.00 0.00 50 1007.1
20260505164515 78 187 2.6 13.0 0.00 0.00 0.00 50 1007.1
20260505164014 78 228 2.6 8.7 0.00 0.00 0.00 56 1007.1
20260505163512 77 221 3.5 8.7 0.00 0.00 0.00 55 1007.3
20260505163012 77 174 1.7 19.1 0.00 0.00 0.00 51 1007.3
20260505162511 77 230 3.5 21.7 0.00 0.00 0.00 51 1007.4
20260505162012 77 208 5.2 12.2 0.00 0.00 0.00 50 1007.5
20260505161509 77 162 1.7 6.1 0.00 0.00 0.00 56 1007.6
20260505161009 76 237 2.6 12.2 0.00 0.00 0.00 54 1007.7
20260505160509 76 218 3.5 12.2 0.00 0.00 0.00 52 1007.8
20260505153006 75 253 1.7 11.3 0.00 0.00 0.00 56 1008.0
20260505152504 75 235 1.7 11.3 0.00 0.00 0.00 57 1008.0
20260505152003 75 222 3.5 15.6 0.00 0.00 0.00 56 1007.9
20260505151503 75 219 5.2 15.6 0.00 0.00 0.00 57 1007.9
20260505151002 75 221 4.3 16.5 0.00 0.00 0.00 55 1008.0
20260505150605 74 243 4.3 16.5 0.00 0.00 0.00 58 1008.1
20260505140550 71 199 6.1 16.5 0.00 0.00 0.00 60 1008.2
20260505125031 65 224 2.6 11.3 0.00 0.00 0.00 69 1008.7
20260505124530 65 203 2.6 10.4 0.00 0.00 0.00 68 1008.7
20260505124029 65 276 5.2 12.2 0.00 0.00 0.00 68 1008.7
20260505123531 64 189 4.3 11.3 0.00 0.00 0.00 70 1008.7
20260505123026 64 226 6.1 11.3 0.00 0.00 0.00 69 1008.8
20260505122525 64 203 2.6 9.6 0.00 0.00 0.00 72 1008.9
20260505122024 63 208 1.7 8.7 0.00 0.00 0.00 72 1009.0
20260505121523 63 183 2.6 9.6 0.00 0.00 0.00 72 1009.0
20260505121021 62 190 1.7 9.6 0.00 0.00 0.00 74 1008.9
20260505120520 62 194 1.7 6.1 0.00 0.00 0.00 74 1008.9
20260505120033 61 267 0.0 6.1 0.00 0.00 0.00 74 1009.0
20260505115519 60 214 1.7 7.8 0.00 0.00 0.00 74 1009.0
20260505115019 60 211 3.5 7.8 0.00 0.00 0.00 75 1009.0
20260505114518 60 228 1.7 5.2 0.00 0.00 0.00 76 1009.0
20260505114017 59 226 1.7 5.2 0.00 0.00 0.00 78 1009.0
20260505113517 58 205 0.9 5.2 0.00 0.00 0.00 79 1008.8
20260505113017 58 212 0.9 4.3 0.00 0.00 0.00 80 1008.8
20260505112520 57 185 0.9 5.2 0.00 0.00 0.00 80 1008.8
20260505112015 57 156 1.7 5.2 0.00 0.00 0.00 80 1008.8
20260505111524 56 195 1.7 4.3 0.00 0.00 0.00 80 1008.7
20260505111015 56 205 0.9 5.2 0.00 0.00 0.00 80 1008.7
20260505110518 56 218 0.9 5.2 0.00 0.00 0.00 80 1008.7
20260505102010 56 193 1.7 6.1 0.00 0.00 0.00 80 1008.2
20260505101511 56 204 2.6 7.8 0.00 0.00 0.00 80 1008.2
20260505101014 56 199 2.6 7.8 0.00 0.00 0.00 80 1008.2
20260505100513 56 212 2.6 7.8 0.00 0.00 0.00 80 1008.2
20260505100010 56 199 1.7 8.7 0.00 0.00 0.00 80 1008.1
20260505095509 55 214 2.6 7.8 0.00 0.00 0.00 80 1008.1
20260505095008 55 198 2.6 7.0 0.00 0.00 0.00 80 1008.2
20260505094510 55 212 1.7 5.2 0.00 0.00 0.00 80 1008.0
20260505094008 55 224 1.7 7.8 0.00 0.00 0.00 80 1007.9
20260505093507 55 176 3.5 7.8 0.00 0.00 0.00 80 1007.8
20260505093007 55 212 2.6 7.0 0.00 0.00 0.00 80 1007.8
20260505092507 55 204 2.6 8.7 0.00 0.00 0.00 80 1007.8
20260505092007 55 191 2.6 8.7 0.00 0.00 0.00 80 1007.8
20260505091505 55 190 3.5 8.7 0.00 0.00 0.00 80 1007.9
20260505091004 55 197 2.6 7.8 0.00 0.00 0.00 79 1007.9
20260505090503 55 207 1.7 8.7 0.00 0.00 0.00 79 1007.8
20260505090003 55 212 2.6 8.7 0.00 0.00 0.00 79 1007.8
20260505085503 56 204 0.9 7.0 0.00 0.00 0.00 78 1007.8
20260505085004 56 222 1.7 7.0 0.00 0.00 0.00 78 1007.8
20260505084502 56 191 2.6 7.0 0.00 0.00 0.00 78 1007.7
20260505084003 56 202 1.7 6.1 0.00 0.00 0.00 78 1007.8
20260505083501 56 206 1.7 7.0 0.00 0.00 0.00 79 1007.7
20260505083000 55 206 0.9 7.8 0.00 0.00 0.00 79 1007.7
20260505082600 55 216 1.7 4.3 0.00 0.00 0.00 79 1007.7
20260505082100 56 208 0.9 4.3 0.00 0.00 0.00 79 1007.6
20260505081604 56 189 0.9 7.0 0.00 0.00 0.00 78 1007.7
20260505081059 56 200 0.9 7.0 0.00 0.00 0.00 78 1007.7
20260505080557 56 184 1.7 6.1 0.00 0.00 0.00 78 1007.6
20260505075558 56 169 2.6 8.7 0.00 0.00 0.00 77 1007.5
20260505075056 57 202 2.6 8.7 0.00 0.00 0.00 77 1007.5
20260505074555 57 208 1.7 8.7 0.00 0.00 0.00 76 1007.4
20260505074055 57 195 1.7 8.7 0.00 0.00 0.00 76 1007.5
20260505073555 57 230 1.7 6.1 0.00 0.00 0.00 76 1007.3
20260505073100 58 206 2.6 7.0 0.00 0.00 0.00 76 1007.3
20260505072558 57 191 3.5 7.0 0.00 0.00 0.00 76 1007.3
20260505072054 57 210 3.5 7.0 0.00 0.00 0.00 77 1007.2
20260505071612 57 205 2.6 7.0 0.00 0.00 0.00 77 1007.3
20260505071057 57 201 2.6 8.7 0.00 0.00 0.00 77 1007.3
20260505070654 57 211 3.5 8.7 0.00 0.00 0.00 77 1007.3
20260505070055 57 184 2.6 7.8 0.00 0.00 0.00 77 1007.3
20260505065553 57 222 1.7 7.8 0.00 0.00 0.00 78 1007.3
20260505065052 57 209 2.6 7.8 0.00 0.00 0.00 78 1007.3
20260505064551 57 220 1.7 7.0 0.00 0.00 0.00 78 1007.3
20260505064053 57 205 1.7 7.0 0.00 0.00 0.00 79 1007.3
20260505063552 57 207 0.9 7.8 0.00 0.00 0.00 79 1007.3
20260505063053 57 210 0.9 5.2 0.00 0.00 0.00 79 1007.4
20260505062549 57 205 0.9 5.2 0.00 0.00 0.00 78 1007.5
20260505062048 57 210 0.0 6.1 0.00 0.00 0.00 79 1007.5
20260505061550 57 203 1.7 7.0 0.00 0.00 0.00 79 1007.6
20260505061048 57 200 2.6 7.0 0.00 0.00 0.00 79 1007.5
20260505060548 57 237 0.9 5.2 0.00 0.00 0.00 79 1007.6
20260505060058 57 216 0.9 5.2 0.00 0.00 0.00 79 1007.7
20260505055548 57 189 1.7 6.1 0.00 0.00 0.00 79 1007.6
20260505055050 56 212 2.6 6.1 0.00 0.00 0.00 79 1007.7
20260505054546 56 200 0.9 4.3 0.00 0.00 0.00 79 1007.7
20260505054044 57 218 0.9 4.3 0.00 0.00 0.00 79 1007.7
20260505053543 57 166 0.9 6.1 0.00 0.00 0.00 78 1007.7
20260505053043 57 205 0.9 7.0 0.00 0.00 0.00 78 1007.7
20260505052540 57 207 0.9 7.0 0.00 0.00 0.00 77 1007.8
20260505052039 58 198 1.7 8.7 0.00 0.00 0.00 77 1007.8
20260505051539 58 232 2.6 8.7 0.00 0.00 0.00 76 1007.7
20260505051038 58 187 1.7 8.7 0.00 0.00 0.00 76 1007.7
20260505050536 59 198 2.6 8.7 0.00 0.00 0.00 75 1007.7
20260505041532 61 209 4.3 10.4 0.00 0.00 0.00 72 1007.3
20260505041027 60 208 3.5 10.4 0.00 0.00 0.00 72 1007.3
20260505040531 61 216 4.3 7.8 0.00 0.00 0.00 72 1007.4
20260505040025 61 174 3.5 8.7 0.00 0.00 0.00 71 1007.3
20260505035527 62 201 2.6 8.7 0.00 0.00 0.00 69 1007.3
20260505035023 63 187 3.5 10.4 0.00 0.00 0.00 68 1007.3
20260505034524 63 227 5.2 12.2 0.00 0.00 0.00 67 1007.3
20260505034024 63 208 5.2 10.4 0.00 0.00 0.00 67 1007.3